Hourly Data Report for October 02, 2014

All times are specified in Local Standard Time (LST). Add 1 hour to adjust for Daylight Saving Time where and when it is observed.

CAPE DORSET A
NUNAVUT

64°13'49.000" N
76°31'30.000" W
48.20 m
2400637
71366
YTE

Download Data

Hourly Data (October 2014)
Hourly Data Report for October 2, 2014
Temp Definition
°C
Dew Point Temp Definition
°C
Rel Hum Definition
%
Wind Dir Definition
10's deg

Wind Spd Definition
km/h
Visibility Definition
km
Stn Press Definition
kPa
Hmdx Definition


Wind Chill Definition


Weather Definition


TIME
00:00 Legend Double Dagger -4.1 -8.4 72 27 9 16.1 101.17   -8 LegendNANA
01:00 Legend Double Dagger -4.1 -8.2 73 25 8 16.1 101.16   -8 LegendNANA
02:00 Legend Double Dagger -4.3 -8.3 74 23 9 16.1 101.12   -8 LegendNANA
03:00 Legend Double Dagger -4.5 -8.7 73 21 9 16.1 101.10   -8 LegendNANA
04:00 Legend Double Dagger -4.8 -8.8 74 12 8 16.1 101.04   -8 LegendNANA
05:00 Legend Double Dagger -5.3 -9.1 75   0 16.1 101.01     LegendNANA
06:00 Legend Double Dagger -5.4 -9.1 76   0 16.1 100.98     LegendNANA
07:00 Legend Double Dagger -5.0 -8.3 78 12 11 16.1 100.90   -10 LegendNANA
08:00 Legend Double Dagger -4.0 -7.6 76 11 18 16.1 100.86   -10 LegendNANA
09:00 Legend Double Dagger -3.4 -7.2 75 11 17 12.9 100.80   -9 LegendNANA
10:00 Legend Double Dagger -2.2 -7.0 70 13 22 16.1 100.74   -8 LegendNANA
11:00 Legend Double Dagger -2.1 -5.9 75 11 24 11.3 100.65   -8 LegendNANA
12:00 Legend Double Dagger -1.9 -5.4 77 9 34 16.1 100.50   -9 LegendNANA
13:00 Legend Double Dagger -1.6 -5.1 77 10 35 16.1 100.40   -9 LegendNANA
14:00 Legend Double Dagger -1.3 -4.7 78 9 45 9.7 100.28   -10 Haze
15:00 Legend Double Dagger -0.9 -3.7 81 10 41 16.1 100.19   -9 LegendNANA
16:00 Legend Double Dagger -0.8 -3.9 80 10 48 16.1 100.08   -9 LegendNANA
17:00 Legend Double Dagger -0.8 -3.6 81 10 43 16.1 99.99   -9 LegendNANA
18:00 Legend Double Dagger -0.7 -3.4 82 10 43 16.1 99.95   -9 LegendNANA
19:00 Legend Double Dagger -0.5 -2.7 85 9 46 16.1 99.88   -9 Snow
20:00 Legend Double Dagger -0.3 -1.9 89 9 45 14.5 99.82   -8 LegendNANA
21:00 Legend Double Dagger -0.4 -1.1 95 9 41 4.8 99.76   -8 Snow
22:00 Legend Double Dagger -0.3 LegendMM LegendMM 8 39 4.0 99.71   -8 Freezing Rain
23:00 Legend Double Dagger -0.3 LegendMM LegendMM 8 41 3.2 99.65   -8 Snow

Notes on Data Quality.

Legend

  • E = Estimated
  • M = Missing
  • NA = Not Available
  • ‡ = Partner data that is not subject to review by the National Climate Archives
Date modified: